map of CCF home
CCF - Airport
Location
City:  Carcassonne, Languedoc-Roussillon, France
Name:Salvaza
ICAO:LFMK
IATA:CCF

Details
Type:Airport (Aerodrome, Airfield)
Use:Public/Civil
Latitude:4312'57"N (43.215817)
Longitude:218'31"E (2.308544)
Elevation:433 ft (132 m)
Variation:1.15E (WMM2015v2 magnetic declination)
0.15 annual change
Runways:2
Longest:6726 × 148 ft (2050 × 45 m)

Time
Time Zone:UTC+1 (DST+2)
Local Time:

Weather
METAR:LFMK 041400Z AUTO 28013KT CAVOK 08/M02 Q1026 NOSIG
TAF:LFMK 041400Z 0415/0515 27012KT CAVOK
BECMG 0423/0501 OVC014
TEMPO 0500/0509 2000 -RA BR BKN008 FEW030TCU

Related Locations
Nearby:
Farthest:CHT: 12362 mi / 19895 km
Waitangi [Tuuta], CIT, NZ

Find:

   beyond  
but within

Other Information
Maps:
NOTAMs:
Links:
Sources:

  
  • flag of France
  • flag of Languedoc-Roussillon
  

Sectional Chart

Flight Planning
at skyvector.com

Satellite Image

Google Maps Satellite view

 

Copyright © 2004-2019 Karl L. Swartz. All rights reserved.
The Great Circle Mapper name and logo are trademarks of the Great Circle Mapper.
All other trademarks mentioned herein belong to their respective owners.
Please see credits for attibutions and further copyright information.

  Follow gcmap on Facebook Follow gcmap on Twitter GCmap on LinkedIn

hCard Microformat

Geo Microformat